Location: Big Prairie
(40.6673°N, 82.0952°W)
Time: 01:08:09
(UTC+00:00)

Cosmos 841 Rocket - Pass Details

Date: 02 July 2022
Orbit: 745 x 772 km, 74.0° (Epoch: 15 August)

Event Time Altitude Azimuth Distance (km) Brightness Sun altitude
Exits shadow 07:47:12 37° 218° (SW) 1,140 3.9 -19.0°
Maximum altitude 07:49:10 70° 290° (WNW) 797 3.5 -18.8°
Drops below altitude 10° 07:54:19 10° 15° (NNE) 2,280 7.0 -18.3°
Sets 07:56:43 0° 18° (NNE) 3,213 8.1 -18.0°
